Theta_e
340 342 345 344 343 343 344 346 347 347 347 347 348 346 343 344 344 342 340 340 340 341 342 343 343 341 340 337 335 337 335 336
339 338 340 339 339 341 342 343 343 344 345 343 343 342 343 342 340 340 341 338 337 339 340 341 341 338 337 334 334 336 335 334
340 339 339 339 338 341 343 344 343 342 342 340 337 338 338 339 335 337 338 334 337 338 338 337 336 336 334 334 332 331 333 333
341 341 341 341 344 338 337 341 338 338 339 336 337 335 335 336 333 336 336 336 336 337 337 335 334 331 330 331 328 328 330 332
341 340 342 341 339 338 338 338 338 337 336 335 337 336 333 334 333 334 333 335 334 335 334 334 333 331 328 327 328 330 330 332
341 340 342 340 338 340 339 339 337 336 335 336 336 333 331 328 327 328 331 332 333 333 332 333 332 331 329 328 327 328 327 329
340 340 341 340 336 336 336 338 338 337 335 336 336 332 331 329 326 328 331 332 333 331 331 332 332 331 329 329 326 326 327 329
341 340 340 340 336 334 334 335 335 335 335 335 335 334 331 330 329 328 329 332 334 332 331 330 331 331 329 328 325 325 325 327
340 339 340 339 336 334 333 333 334 333 334 334 335 334 333 330 330 330 330 331 331 330 328 328 328 330 329 327 325 324 324 325
340 340 337 336 335 333 332 332 332 331 332 333 333 333 334 331 330 329 330 330 329 328 328 326 327 327 326 325 322 324 323 323
337 337 335 334 334 332 330 331 330 329 330 331 332 331 331 330 328 328 330 329 328 326 324 325 326 326 326 323 318 320 322 323
336 336 334 332 333 330 327 329 331 328 328 329 334 331 331 328 326 326 328 326 324 324 325 325 325 325 326 322 317 318 319 321
335 333 334 331 329 326 325 324 329 326 326 328 328 328 329 325 326 328 327 325 326 325 325 324 323 324 319 317 317 315 314 318
334 333 333 330 329 327 323 323 327 323 324 326 330 327 327 326 327 327 326 326 325 325 324 323 323 323 317 315 310 313 316 314
332 332 332 329 328 327 325 323 322 321 323 324 328 329 328 327 327 327 326 326 324 324 324 322 320 322 320 314 309 307 312 314
332 332 331 328 327 325 324 322 320 320 322 325 325 326 328 328 328 327 326 326 325 324 324 323 321 318 318 318 316 314 309 307
331 331 331 329 327 325 322 319 319 319 321 322 323 325 326 325 325 325 325 325 325 325 324 322 322 320 318 316 313 314 314 310
331 330 330 328 326 324 323 320 319 319 319 320 320 322 324 325 325 325 325 325 324 324 324 323 321 321 320 318 315 313 312 311
329 328 327 327 325 324 323 322 319 319 320 320 321 319 318 320 323 323 323 324 323 324 323 322 322 320 320 319 319 316 316 316
328 326 326 326 325 324 325 322 321 321 322 322 320 320 319 320 320 322 322 323 322 323 323 322 322 320 319 319 319 319 318 316
Wind_Speed
8 8 10 11 10 10 11 11 11 11 11 11 12 9 6 5 12 15 14 15 6 10 16 15 15 14 12 11 10 14 9 8
9 7 7 7 6 9 10 10 9 8 6 7 9 10 11 16 17 16 17 18 12 11 12 17 15 13 12 11 11 15 11 9
9 8 8 8 7 7 9 10 9 8 7 7 7 4 7 11 10 12 14 12 14 11 12 10 12 13 13 12 9 5 7 6
11 9 8 9 8 7 6 7 5 5 6 6 5 5 6 8 9 16 16 16 15 10 10 8 8 5 4 7 3 4 4 7
11 10 8 8 7 7 4 4 5 5 7 7 7 6 6 6 5 6 6 11 6 10 6 4 6 7 5 4 4 5 5 5
14 12 9 7 5 6 7 6 5 5 5 8 7 5 6 6 4 4 6 6 8 9 7 5 5 8 8 6 6 9 6 6
16 15 12 10 6 5 5 5 6 7 6 8 8 7 7 6 5 4 5 6 8 8 8 6 6 7 8 6 8 9 10 7
17 16 14 13 7 6 5 4 5 6 6 8 10 8 7 7 7 6 5 7 7 7 7 6 6 4 5 7 10 10 11 10
19 17 14 14 12 7 5 3 5 6 6 9 10 9 9 8 7 7 6 7 8 6 4 3 4 2 2 3 11 12 10 11
20 16 15 14 11 8 5 4 4 4 5 6 9 8 10 9 7 7 7 6 8 7 6 4 5 5 2 2 8 11 12 11
20 18 18 15 11 8 6 6 4 4 4 5 8 7 7 7 6 6 8 7 7 7 4 7 7 7 5 4 6 10 11 9
20 17 16 13 9 8 6 4 4 4 4 4 8 7 8 6 5 6 7 7 6 6 8 5 5 7 8 5 5 7 9 9
20 19 17 13 11 10 7 7 5 3 4 6 6 6 7 7 6 8 7 7 9 9 6 8 5 11 5 4 4 5 7 8
19 19 19 12 11 8 5 5 3 3 3 5 6 7 6 8 10 10 9 7 8 8 8 5 4 7 6 9 4 3 3 5
20 20 19 13 13 9 7 5 3 3 5 3 4 5 7 8 10 9 9 8 8 9 10 9 7 7 6 5 7 5 4 2
21 20 18 15 15 10 14 10 8 4 5 5 5 7 7 8 10 10 11 8 9 10 9 8 6 12 3 5 3 6 8 2
18 19 17 16 14 12 9 5 3 4 4 8 7 8 8 8 9 10 10 8 10 12 12 12 8 8 7 4 3 3 3 4
19 21 18 17 14 15 13 10 8 6 6 6 4 4 4 7 8 9 10 10 11 11 15 15 9 8 6 5 4 4 4 4
17 18 17 16 14 16 14 12 9 9 9 7 9 5 3 4 6 7 7 9 11 12 12 13 11 10 9 5 2 3 4 3
20 16 15 16 15 14 12 10 7 7 8 7 6 7 6 7 6 7 8 11 9 12 8 10 11 8 7 4 3 2 2 4
Wind_Direction
133 135 139 147 153 157 155 155 164 176 185 191 186 175 169 169 113 104 100 88 354 264 164 149 154 154 143 135 122 118 112 119
145 148 144 147 151 158 161 157 158 160 143 158 167 164 160 136 126 132 142 146 123 261 212 153 156 145 145 146 131 135 130 126
149 157 160 160 154 166 166 158 162 157 157 153 148 158 148 142 150 168 158 146 150 204 233 178 152 144 160 158 148 135 134 133
154 158 168 171 161 157 171 157 159 163 159 154 147 134 125 140 161 166 154 150 142 144 183 169 149 129 147 156 152 155 136 137
165 162 167 174 153 156 170 158 172 179 167 156 136 124 118 132 153 158 149 144 146 141 165 189 166 147 160 170 157 145 122 136
168 169 166 181 151 160 171 163 174 179 171 148 134 135 136 145 149 149 155 153 156 168 168 181 185 161 165 174 148 140 134 139
172 168 173 173 159 167 166 169 178 175 156 146 140 147 153 150 157 159 161 159 168 171 173 180 181 180 169 175 129 131 133 135
172 176 172 171 155 168 149 153 163 150 152 150 146 154 153 163 167 172 171 165 169 177 177 173 187 172 197 171 139 138 138 137
173 170 173 171 149 146 138 158 146 147 154 150 155 161 161 158 166 169 175 162 160 168 155 124 132 146 239 153 143 139 138 147
170 166 163 152 147 138 137 157 133 140 139 150 156 158 163 159 162 162 164 158 170 164 168 139 143 164 165 285 147 147 144 153
165 158 159 148 142 142 144 162 144 164 150 154 159 152 158 155 165 157 159 172 166 157 157 168 167 172 180 223 169 139 149 144
165 159 149 148 140 131 123 146 151 166 166 161 157 158 163 155 152 151 160 159 148 145 161 173 171 180 173 185 159 129 139 155
162 152 148 144 148 143 143 175 167 163 165 169 155 148 156 149 152 159 162 169 170 168 158 172 185 154 144 107 50 125 137 157
158 156 153 150 150 147 131 145 169 157 158 179 149 152 156 154 162 172 169 165 167 168 155 159 144 147 148 146 140 59 63 144
158 156 158 146 145 135 126 140 125 154 177 164 150 155 167 165 168 170 168 169 175 173 166 165 158 171 225 152 133 177 132 142
151 155 159 148 153 151 158 173 170 182 166 155 165 182 181 167 172 171 176 179 178 182 171 161 155 169 212 183 114 138 161 150
154 154 161 155 149 143 147 153 156 146 138 155 171 181 178 177 176 177 180 186 183 180 173 168 171 166 175 174 110 114 117 126
157 159 163 157 145 143 155 165 174 154 155 156 149 135 132 168 174 182 191 190 185 183 185 172 162 174 176 172 163 148 174 149
157 158 158 155 143 152 156 173 172 168 156 153 152 137 133 184 172 182 190 197 193 177 175 173 164 172 182 184 182 137 149 153
155 159 152 159 145 158 167 167 163 160 151 154 158 154 173 181 188 199 202 212 190 164 171 168 170 162 171 171 169 183 159 148